Terminal Aerodrome Forecast
Issued by NWS

Home | Current Version | Previous Version | Text Only | Print | Product List | Glossary Off
Versions: 1 2 3 4 5 6 7 8 9 10 11 12 13 14 15

000
FTUS43 KABR 271100
TAFMBG
TAF
KMBG 271122Z 2712/2812 33011KT P6SM SKC
      TEMPO 2714/2715 BKN030
     FM271500 34014G23KT P6SM BKN040
     FM280200 36006KT P6SM SKC=

USA.gov is the U.S. government's official web portal to all federal, state and local government web resources and services.